User: anonymous
Location: Hartman Creek State Park
(44.3257°N, 89.2134°W)
Time: 12:28:50
(UTC-05:00)
Language:

Cosmos 2263 Rocket - Orbit

View from above orbital plane
View from above orbital plane
View from above satellite
View from above satellite

Ground track
Ground track

The orbit data is extracted from the following two-line orbital elements,

1 22803U 93059B   14109.66809279 -.00000114  00000-0 -32719-4 0  2530
2 22803 070.9896 162.0935 0018396 336.9301 023.0994 14.16663914 64765
Epoch (UTC): 19 April 2014 16:02:03
Eccentricity: 0.0018396
inclination: 70.9896°
perigee height: 823 km
apogee height: 850 km
right ascension of ascending node: 162.0935°
argument of perigee: 336.9301°
revolutions per day: 14.16663914
mean anomaly at epoch: 23.0994°
orbit number at epoch: 6476

The dashed part of the orbit path shows where the satellite is in the earth's shadow,  

DLR